[[{"header":{"parameterUnit":"m.s-1","parameterCategory":1,"la1":30.2991,"la2":30.254,"lo1":-89.0895,"lo2":-89.0444,"dy":0.0017,"dx":0.0017,"nx":28,"ny":28,"refTime":"2024-07-03T21:00:00:Z","depth":0,"parameterNumber":2,"parameterNumberName":"U-component_of_WINDS"},"data":[0,0,0,0,0,0,0,0,0,0,0,0,0,0,0,0,0,0,0,0,0,0,0,0,0,0,0,0,0,0,0,0,0,0,0,0,0,0,0,0,0,0,0,0,0,0,0,0,0,0,0,0,0,0,0,0,0,0,-1.8478,-1.8477,0,-1.8414,-1.8413,-1.8412,-1.8418,-1.8419,-1.842,-1.8421,-1.8348,-1.8345,-1.8343,0,0,0,0,0,0,0,0,0,0,0,0,0,-1.8598,-1.8596,-1.8478,-1.8477,-1.8476,-1.8414,-1.8413,-1.8412,-1.8418,-1.8419,-1.842,-1.8421,-1.8349,-1.8346,-1.8342,0,0,0,0,0,0,0,0,0,0,0,0,0,-1.8541,-1.8595,-1.8478,-1.8472,-1.847,-1.8414,-1.8413,-1.8412,-1.8417,-1.8419,-1.842,-1.8422,-1.835,-1.8346,-1.8342,-1.8286,0,0,-1.8329,-1.8327,0,0,0,0,0,0,0,0,-1.8544,-1.8537,-1.8473,-1.8472,-1.847,-1.8426,-1.8429,-1.8369,-1.8417,-1.8437,-1.8421,-1.8422,-1.8372,-1.8366,-1.8351,-1.8282,-1.8279,-1.8328,-1.8326,-1.8324,-1.8323,0,0,0,0,0,0,0,-1.8548,-1.8539,-1.8452,-1.8472,-1.8471,-1.847,-1.8463,-1.8418,-1.8397,-1.8436,-1.8436,-1.8429,-1.8372,-1.8355,-1.8349,-1.8278,-1.8329,-1.8325,-1.8322,-1.832,-1.816,-1.8159,0,0,0,0,0,0,-1.8555,-1.8543,-1.8454,-1.845,-1.8512,-1.8467,-1.8459,-1.8438,-1.8398,-1.8393,-1.8427,-1.8429,-1.8362,-1.8354,-1.8347,-1.8278,-1.8324,-1.832,-1.8318,-1.8162,-1.816,-1.8158,0,0,0,0,0,0,-1.8557,-1.8547,-1.8457,-1.8497,-1.8485,-1.8463,-1.8439,-1.8436,-1.842,-1.8392,-1.8387,-1.8414,-1.8362,-1.8353,-1.8301,-1.8275,-1.8318,-1.8314,-1.8164,-1.8161,-1.8159,-1.814,0,0,0,0,0,0,-1.8561,-1.8548,-1.8527,-1.8496,-1.8483,-1.8414,-1.8438,-1.8434,-1.8413,-1.8415,-1.8378,-1.8373,-1.8363,-1.8308,-1.8297,-1.827,-1.8311,-1.8166,-1.8163,-1.816,-1.8143,-1.8137,-1.8132,0,0,0,0,0,-1.8565,-1.8523,-1.8526,-1.8516,-1.8458,-1.8413,-1.8405,-1.8396,-1.8411,-1.8389,-1.8372,-1.8375,-1.8281,-1.8302,-1.829,-1.8262,-1.8168,-1.8164,-1.816,-1.8145,-1.8138,-1.8132,0,0,0,0,0,0,-1.8549,-1.8519,-1.8522,-1.8469,-1.8444,-1.8414,-1.8387,-1.8389,-1.8357,-1.8359,-1.8347,-1.8339,-1.8287,-1.8269,-1.8294,-1.8205,-1.8226,-1.8219,-1.8218,-1.8212,-1.8206,-1.8211,-1.8307,0,0,0,0,0,-1.854,-1.8508,-1.8483,-1.8439,-1.8426,-1.8409,-1.8389,-1.8384,-1.8356,-1.8345,-1.8323,-1.8294,-1.8258,-1.8234,-1.8199,-1.8141,-1.8132,-1.8115,-1.811,-1.8106,-1.81,-1.8067,-1.8058,-1.8145,-1.8145,-1.8146,0,0,-1.852,-1.8499,-1.8479,-1.8435,-1.8415,-1.838,-1.8399,-1.8362,-1.8335,-1.8338,-1.8289,-1.8272,-1.8239,-1.8184,-1.8158,-1.8167,-1.8074,-1.8101,-1.8098,-1.8094,-1.8062,-1.8054,-1.8046,-1.8143,-1.8143,-1.8144,0,0,-1.8465,-1.8447,-1.8408,-1.8388,-1.8359,-1.8348,-1.8338,-1.8308,-1.8298,-1.8249,-1.825,-1.8218,-1.8156,-1.8132,-1.8112,-1.805,-1.8051,-1.8039,-1.801,-1.7978,-1.7971,-1.7965,-1.7941,-1.7933,-1.8033,-1.8033,-1.8033,0,-1.8443,-1.8393,-1.8387,-1.835,-1.833,-1.8334,-1.8293,-1.8273,-1.8233,-1.8218,-1.8229,-1.8153,-1.813,-1.8069,-1.8055,-1.8039,-1.8026,-1.8042,-1.7973,-1.7967,-1.7961,-1.7938,-1.793,-1.8032,-1.8032,-1.8032,-1.8032,0,-1.8367,-1.8332,-1.8304,-1.8267,-1.8244,-1.8205,-1.8192,-1.8169,-1.8166,-1.8153,-1.8103,-1.8077,-1.8037,-1.8022,-1.8019,-1.7961,-1.7967,-1.7976,-1.7996,-1.7951,-1.793,-1.7921,-1.803,-1.803,-1.8031,-1.8031,0,0,-1.8298,-1.8261,-1.825,-1.8234,-1.8202,-1.8173,-1.8134,-1.8098,-1.8077,-1.8049,-1.8015,-1.7964,-1.7972,-1.7949,-1.7943,-1.7915,-1.7866,-1.7927,-1.7926,-1.7915,-1.7799,-1.7791,-1.7781,-1.7868,-1.7866,-1.7865,-1.7801,0,-1.8239,-1.8173,-1.8167,-1.8106,-1.8073,-1.8077,-1.8043,-1.8018,-1.8005,-1.7974,-1.7959,-1.7922,-1.7937,-1.7923,-1.7896,-1.7878,-1.7842,-1.7883,-1.7833,-1.7831,-1.784,-1.777,-1.7761,-1.7703,-1.7793,-1.7791,-1.779,0,-1.8161,-1.8134,-1.807,-1.8043,-1.8029,-1.7999,-1.7964,-1.7935,-1.7907,-1.79,-1.7875,-1.7873,-1.7831,-1.7854,-1.7795,-1.7822,-1.7802,-1.779,-1.7787,-1.778,-1.7807,-1.776,-1.7684,-1.7674,-1.7777,-1.7778,-1.7779,0,-1.8116,-1.8063,-1.8018,-1.8004,-1.7971,-1.795,-1.7935,-1.7909,-1.7887,-1.7856,-1.7842,-1.7806,-1.7786,-1.7758,-1.7745,-1.7764,-1.7686,-1.7708,-1.7676,-1.7676,-1.7658,-1.7659,-1.7576,-1.7648,-1.7648,-1.7648,-1.7648,0,-1.805,-1.8011,-1.7998,-1.797,-1.7925,-1.7918,-1.7874,-1.7859,-1.7836,-1.7804,-1.7805,-1.7774,-1.7761,-1.7728,-1.7717,-1.7669,-1.766,-1.7651,-1.7648,-1.765,-1.7651,-1.7635,-1.7638,-1.7646,-1.7646,-1.7647,-1.7647,0,-1.7992,-1.7982,-1.7932,-1.7907,-1.7899,-1.7867,-1.7844,-1.7816,-1.7805,-1.7764,-1.7754,-1.7735,-1.7696,-1.7681,-1.7633,-1.7626,-1.7569,-1.7571,-1.7579,-1.7578,-1.7547,-1.7549,-1.7449,-1.7434,-1.7518,-1.7517,-1.7516,0,-1.7949,-1.7919,-1.7891,-1.7871,-1.7856,-1.7823,-1.7801,-1.7794,-1.7771,-1.7737,-1.7713,-1.7675,-1.7643,-1.758,-1.7561,-1.7523,-1.7523,-1.7491,-1.7517,-1.7519,-1.752,-1.7522,-1.7518,-1.7485,-1.7484,-1.7483,-1.7483,0,-1.7875,-1.7872,-1.7842,-1.781,-1.7785,-1.7759,-1.7734,-1.7717,-1.7705,-1.7679,-1.7641,-1.7617,-1.7569,-1.753,-1.7492,-1.7474,-1.7475,-1.7475,-1.7465,-1.7465,-1.7471,-1.7466,-1.7564,-1.7476,-1.7477,-1.7478,-1.7478,-1.7478,-1.7822,-1.7795,-1.7771,-1.7738,-1.7719,-1.7696,-1.7668,-1.7654,-1.7623,-1.7584,-1.7581,-1.7539,-1.7511,-1.7461,-1.7442,-1.7407,-1.7416,-1.7402,-1.7398,-1.7394,-1.7392,-1.7478,-1.7401,-1.7401,-1.7401,-1.7401,-1.7401,0,-1.7746,-1.7732,-1.7701,-1.7667,-1.764,-1.7647,-1.762,-1.7596,-1.756,-1.7535,-1.7505,-1.746,-1.7423,-1.7401,-1.7363,-1.734,-1.7339,-1.733,-1.733,-1.7326,-1.7387,-1.7398,-1.7331,-1.7331,-1.7331,-1.7331,-1.7331,-1.7331,-1.7704,-1.7659,-1.7653,-1.7598,-1.7583,-1.7544,-1.7527,-1.7505,-1.7485,-1.7436,-1.7406,-1.7393,-1.7368,-1.7329,-1.7294,-1.7289,-1.7274,-1.7263,-1.7258,-1.7315,-1.7322,-1.7329,-1.7339,-1.7261,-1.7261,-1.72,-1.7199,-1.7199]},{"header":{"parameterUnit":"m.s-1","parameterCategory":1,"la1":30.2991,"la2":30.254,"lo1":-89.0895,"lo2":-89.0444,"dy":0.0017,"dx":0.0017,"nx":28,"ny":28,"refTime":"2024-07-03T21:00:00:Z","depth":0,"parameterNumber":3,"parameterNumberName":"V-component_of_WINDS"},"data":[0,0,0,0,0,0,0,0,0,0,0,0,0,0,0,0,0,0,0,0,0,0,0,0,0,0,0,0,0,0,0,0,0,0,0,0,0,0,0,0,0,0,0,0,0,0,0,0,0,0,0,0,0,0,0,0,0,0,4.4784,4.4784,0,4.4797,4.4797,4.4797,4.4761,4.476,4.4759,4.4758,4.4769,4.4771,4.4772,0,0,0,0,0,0,0,0,0,0,0,0,0,4.4727,4.4728,4.4784,4.4784,4.4784,4.4797,4.4797,4.4797,4.4761,4.476,4.4759,4.4757,4.4769,4.477,4.4772,0,0,0,0,0,0,0,0,0,0,0,0,0,4.4747,4.4728,4.4784,4.4768,4.4766,4.4797,4.4797,4.4797,4.4762,4.476,4.4758,4.4757,4.4768,4.477,4.4772,4.4818,0,0,4.4778,4.4779,0,0,0,0,0,0,0,0,4.4746,4.4749,4.477,4.4769,4.4768,4.4776,4.4781,4.4804,4.4762,4.4763,4.4758,4.4756,4.4773,4.4774,4.478,4.4819,4.4819,4.4779,4.478,4.4781,4.4781,0,0,0,0,0,0,0,4.4744,4.4748,4.4789,4.477,4.4769,4.476,4.4761,4.4785,4.4777,4.4763,4.4761,4.4763,4.4772,4.4778,4.478,4.4819,4.4779,4.478,4.4782,4.4782,4.4898,4.4899,0,0,0,0,0,0,4.4745,4.4747,4.4789,4.4789,4.4752,4.4762,4.4763,4.4775,4.4777,4.4776,4.4764,4.4761,4.4776,4.4778,4.4781,4.4835,4.4781,4.4783,4.4784,4.4896,4.4898,4.49,0,0,0,0,0,0,4.4744,4.4749,4.4788,4.4768,4.4772,4.4765,4.4778,4.4776,4.4783,4.4778,4.4776,4.4773,4.4775,4.4778,4.481,4.4835,4.4784,4.4785,4.4894,4.4896,4.4899,4.4944,0,0,0,0,0,0,4.4743,4.4749,4.4767,4.4768,4.4773,4.4817,4.478,4.4777,4.4786,4.4782,4.4785,4.4784,4.4773,4.4807,4.4812,4.4837,4.4787,4.4891,4.4895,4.4898,4.4941,4.4948,4.4955,0,0,0,0,0,4.4741,4.4778,4.4768,4.4773,4.4795,4.4819,4.4821,4.4809,4.4789,4.4806,4.4803,4.4784,4.4832,4.481,4.4815,4.4842,4.489,4.4894,4.4898,4.4937,4.4947,4.4955,0,0,0,0,0,0,4.4778,4.4778,4.4766,4.4805,4.4813,4.4813,4.4834,4.4819,4.4832,4.4827,4.4811,4.4812,4.4847,4.4848,4.4824,4.4887,4.4857,4.4862,4.4885,4.4894,4.4901,4.49,4.4789,0,0,0,0,0,4.4791,4.4811,4.481,4.4844,4.4849,4.4841,4.4851,4.4841,4.4847,4.485,4.4849,4.4856,4.4872,4.4883,4.4898,4.4941,4.4941,4.4961,4.4969,4.4975,4.4979,4.5003,4.5012,4.4914,4.4914,4.4913,0,0,4.4818,4.482,4.4834,4.4852,4.4856,4.4877,4.4844,4.4867,4.4882,4.4853,4.4883,4.4883,4.489,4.4927,4.4944,4.4929,4.5007,4.498,4.4985,4.4986,4.5008,4.5017,4.5025,4.4916,4.4916,4.4915,0,0,4.4877,4.4881,4.4911,4.4916,4.4924,4.4919,4.4926,4.4929,4.4928,4.4959,4.4938,4.4956,4.4984,4.499,4.4996,4.506,4.5043,4.5065,4.5103,4.5126,4.5133,4.514,4.5163,4.5172,4.507,4.507,4.507,0,4.4909,4.494,4.4928,4.4953,4.4962,4.4938,4.4969,4.4974,4.4986,4.4992,4.4976,4.5012,4.5014,4.5053,4.5069,4.5075,4.5083,4.5064,4.5133,4.514,4.5146,4.5168,4.5177,4.5073,4.5073,4.5072,4.5072,0,4.4979,4.5001,4.5025,4.5038,4.5049,4.5077,4.5069,4.5082,4.5072,4.5068,4.51,4.5102,4.5118,4.5127,4.5116,4.5165,4.5155,4.5136,4.5106,4.5159,4.5179,4.5187,4.5077,4.5076,4.5075,4.5074,0,0,4.5061,4.5069,4.5078,4.5084,4.5091,4.5108,4.5135,4.5151,4.5162,4.5172,4.5194,4.5219,4.5202,4.521,4.52,4.522,4.5271,4.5199,4.5199,4.5212,4.5325,4.5339,4.5349,4.526,4.5262,4.5263,4.5325,0,4.512,4.5167,4.5157,4.5203,4.5223,4.5202,4.5225,4.5232,4.5231,4.5247,4.5245,4.5264,4.524,4.5244,4.5263,4.5261,4.5294,4.5257,4.528,4.5281,4.5279,4.536,4.5374,4.5432,4.5333,4.5334,4.5335,0,4.5195,4.5208,4.5256,4.5262,4.527,4.5291,4.5306,4.5322,4.533,4.5327,4.5337,4.5323,4.535,4.532,4.5356,4.5331,4.5341,4.5341,4.5343,4.5345,4.5311,4.5363,4.545,4.5459,4.5347,4.5346,4.5345,0,4.525,4.528,4.5313,4.5319,4.5326,4.5342,4.5345,4.5352,4.5362,4.5375,4.5382,4.5397,4.5405,4.5418,4.5409,4.5388,4.5447,4.5416,4.5445,4.5446,4.5458,4.5457,4.5548,4.5465,4.5464,4.5464,4.5464,0,4.5317,4.5347,4.5339,4.5359,4.5392,4.5381,4.5414,4.5415,4.5421,4.5441,4.5424,4.5443,4.543,4.5448,4.5441,4.5473,4.5477,4.5475,4.5473,4.5476,4.5477,4.5482,4.5478,4.5467,4.5466,4.5466,4.5465,0,4.5384,4.538,4.5414,4.5419,4.5421,4.5445,4.5449,4.5468,4.5465,4.549,4.5496,4.5491,4.5512,4.5505,4.5526,4.5521,4.5562,4.5554,4.5559,4.5557,4.5587,4.5584,4.5684,4.5697,4.5605,4.5606,4.5607,0,4.5427,4.545,4.5457,4.547,4.5475,4.5496,4.5507,4.5497,4.551,4.5521,4.5539,4.5558,4.5572,4.5606,4.5604,4.5621,4.5613,4.5647,4.5616,4.5619,4.5614,4.5613,4.5615,4.5654,4.5655,4.5655,4.5656,0,4.5503,4.55,4.5518,4.5535,4.555,4.5562,4.5573,4.5585,4.5576,4.559,4.5612,4.5623,4.5646,4.5665,4.568,4.5683,4.5668,4.5666,4.5674,4.5678,4.568,4.5679,4.5576,4.5664,4.5663,4.5663,4.5662,4.5662,4.556,4.558,4.5589,4.5609,4.5617,4.5628,4.5646,4.5647,4.5664,4.5683,4.5676,4.57,4.5708,4.5727,4.5732,4.5751,4.5738,4.5749,4.5752,4.5755,4.5759,4.5677,4.5754,4.5754,4.5753,4.5753,4.5753,0,4.5635,4.5641,4.566,4.5676,4.5693,4.5679,4.569,4.5705,4.5727,4.5736,4.5751,4.5776,4.5795,4.5795,4.5813,4.5828,4.5822,4.5833,4.5831,4.5832,4.5769,4.5761,4.5838,4.5838,4.5838,4.5838,4.5838,4.5838,4.5677,4.571,4.5709,4.5746,4.575,4.5775,4.5783,4.5793,4.5801,4.5829,4.5845,4.5846,4.5852,4.587,4.5887,4.5886,4.5893,4.5907,4.5904,4.5845,4.5837,4.5829,4.5821,4.5909,4.5909,4.5966,4.5967,4.5967]}]]